sat.trackr.live / text

‹ back to catalog

STARLINK-5545

NORAD 56476 · 2023-064AE

PAYLOAD ACTIVE UNKNOWN

§ Identity

Operator
Country
US
Launch date
2023-05-10
Launch site
AFWTR
Launch vehicle
Mass (kg)
RCS (m²)

Purposes: comms

External: N2YO · Heavens-Above · Gunter

§ Orbital elements

Epoch: 2026-09-20T22:00:03.000096Z

Period
95.65 min
Inclination
70.0012°
Eccentricity
0.0005171
Mean motion
15.05470757 rev/d
Perigee alt
546.5 km
Apogee alt
553.6 km
Semi-major
6,928.2 km
B*
-2.4821e-4
RAAN
352.1964°
Arg perigee
270.8619°
Mean anomaly
72.6993°
Rev number
576

§ Raw data

STARLINK-55451 56476U 23064AE  26263.91670139 -.00003673  00000+0 -24821-3 0  99982 56476  70.0012 352.1964 0005171 270.8619  72.6993 15.05470757  5762

JSON: /api/v1/satellites/56476 · /tle

For live sub-satellite position, see the globe view (requires WebGL).

§ Visibility from observer

Set your observer location to see the next 7 days of passes ≥ 10°. The values pass through the URL so the page stays shareable.

No JS? Fill the form by hand. The geolocation button needs JavaScript.